Find Kosmos-2273

NORAD ID: 23004 Int'l Des: 1994-011 Owner: VKS Country: RU operational
LEOCIRCULARPOLAR

リアルタイム位置

3D地球を読み込み中...

Kosmos-2273について

説明を読み込み中...

次回通過

Passes for default location (London). Set your location on the main map for personalized predictions.

高度履歴

Loading altitude history...

軌道要素

1 23004U 94011F 26107.15454237 .00000032 00000-0 11777-3 0 9992
2 23004 82.5791 354.0391 0004983 339.8101 140.8312 12.62917879483047
Epoch: Apr 17, 2026 • Age: 16 hours

現在のステータス

高度 1426.3 km
速度 7.15 km/s
衛星直下点 -35.39°S, 41.66°E
打ち上げ日 Feb 12, 1994
運用期間 32.1 years
タイプ other

技術仕様

分類 Payload
質量 225.00 kg
乾燥質量 225.00 kg
総質量 225.00 kg
長さ 1.60 m
直径 0.80 m
スパン 7.00 m
形状 Cyl + Ant
製造者 NPOPMR
バスタイプ Strela-3
フェーズステータス In Orbit
所有者/国 VKS/RU

Most Searched